Hourly Data Report for July 11, 2017

TORONTO CITY
ONTARIO

43°40'00.000" N
79°24'00.000" W
112.50 m
6158355
71508
XTO

Download Data

Hourly Data (July 2017)
Hourly Data Report for July 11, 2017
TIME
LST
Temp Definition
°C
Dew Point Definition
°C
Rel Hum Definition
%
Precip. Amount Definition
mm

Wind Dir Definition
10's deg

Wind Spd Definition
km/h
Visibility Definition
km
Stn Press Definition
kPa
Hmdx Definition


Wind Chill Definition


Weather Definition


00:00 19.3 17.5 89 0.0 LegendMM LegendMM   99.87     LegendNANA
01:00 18.7 17.1 91 0.0 LegendMM LegendMM   99.85     LegendNANA
02:00 18.3 17.0 92 0.0 LegendMM LegendMM   99.82     LegendNANA
03:00 18.2 16.9 92 0.0 LegendMM LegendMM   99.79     LegendNANA
04:00 18.2 16.7 91 0.0 LegendMM LegendMM   99.80     LegendNANA
05:00 17.8 16.5 92 0.0 LegendMM LegendMM   99.84     LegendNANA
06:00 18.0 16.7 92 0.0 LegendMM LegendMM   99.90     LegendNANA
07:00 19.3 16.8 86 0.0 LegendMM LegendMM   99.88     LegendNANA
08:00 20.3 17.1 82 0.0 LegendMM LegendMM   99.96 26   LegendNANA
09:00 21.6 17.5 78 0.0 LegendMM LegendMM   99.94 27   LegendNANA
10:00 23.2 17.4 70 0.0 LegendMM LegendMM   99.95 29   LegendNANA
11:00 23.6 17.5 69 0.0 LegendMM LegendMM   99.96 29   LegendNANA
12:00 25.0 17.8 64 0.0 LegendMM LegendMM   99.95 31   LegendNANA
13:00 25.5 15.4 53 0.0 LegendMM LegendMM   99.93 30   LegendNANA
14:00 26.8 16.4 53 0.0 LegendMM LegendMM   99.91 32   LegendNANA
15:00 26.9 16.8 54 0.0 LegendMM LegendMM   99.89 32   LegendNANA
16:00 27.3 14.5 46 0.0 LegendMM LegendMM   99.90 31   LegendNANA
17:00 26.4 16.5 54 0.0 LegendMM LegendMM   99.86 31   LegendNANA
18:00 25.6 16.4 57 0.0 LegendMM LegendMM   99.81 30   LegendNANA
19:00 25.2 17.4 62 0.0 LegendMM LegendMM   99.78 31   LegendNANA
20:00 23.9 17.9 70 0.0 LegendMM LegendMM   99.85 30   LegendNANA
21:00 23.7 17.6 69 0.0 LegendMM LegendMM   99.95 29   LegendNANA
22:00 23.2 18.1 73 0.0 LegendMM LegendMM   99.98 29   LegendNANA
23:00 23.2 18.1 73 0.0 LegendMM LegendMM   99.96 29   LegendNANA

Notes on Data Quality.

Legend

  • E = Estimated
  • M = Missing
  • NA = Not Available*
  • [empty] = Indicates an unobserved value
Date modified: